• In Hungary
  • List of Countries
  • For 7 days
  • Water Temperature
  • Satellite Maps
  • Weather Map
  • News
  • Weather Widgets
  • user-avatar
    Login

    Hourly Weather Zeran

    Today, 19 October, Friday

    Time Temperature Precipitation Wind Pressure Humidity
    00:00 +13°C° 0 mm 1 mps 753 mmHg 67%
    01:00 +13°C° 0 mm 2 mps 753 mmHg 70%
    02:00 +13°C° 0 mm 2 mps 753 mmHg 72%
    03:00 +12°C° 0 mm 2 mps 753 mmHg 75%
    04:00 +12°C° 0 mm 2 mps 753 mmHg 77%
    05:00 +12°C° 0 mm 2 mps 753 mmHg 78%
    06:00 +10°C° 0 mm 2 mps 754 mmHg 80%
    07:00 +10°C° 0 mm 2 mps 754 mmHg 81%
    08:00 +13°C° 0 mm 2 mps 754 mmHg 76%
    09:00 +14°C° 0 mm 2 mps 754 mmHg 70%
    10:00 +16°C° 0 mm 2 mps 755 mmHg 65%
    11:00 +17°C° 0 mm 2 mps 755 mmHg 62%
    12:00 +17°C° 0 mm 3 mps 755 mmHg 60%
    13:00 +18°C° 0 mm 3 mps 755 mmHg 57%
    14:00 +18°C° 0 mm 3 mps 754 mmHg 61%
    15:00 +17°C° 0 mm 3 mps 754 mmHg 64%
    16:00 +16°C° 0 mm 2 mps 754 mmHg 68%
    17:00 +15°C° 0 mm 2 mps 755 mmHg 72%
    18:00 +14°C° 0 mm 2 mps 755 mmHg 76%
    19:00 +13°C° 0 mm 2 mps 755 mmHg 80%
    20:00 +12°C° 0 mm 2 mps 755 mmHg 81%
    21:00 +12°C° 0 mm 2 mps 756 mmHg 81%
    22:00 +10°C° 0 mm 2 mps 756 mmHg 81%
    23:00 +10°C° 0 mm 2 mps 756 mmHg 81%

    Tomorrow, 20 October, Saturday

    Time Temperature Precipitation Wind Pressure Humidity
    00:00 +10°C° 0 mm 2 mps 756 mmHg 81%
    01:00 +10°C° 0 mm 1 mps 756 mmHg 82%
    02:00 +10°C° 0 mm 1 mps 756 mmHg 81%
    03:00 +10°C° 0 mm 1 mps 756 mmHg 81%
    04:00 +10°C° 0 mm 1 mps 756 mmHg 81%
    05:00 +10°C° 0 mm 1 mps 756 mmHg 79%
    06:00 +10°C° 0 mm 1 mps 757 mmHg 77%
    07:00 +10°C° 0 mm 1 mps 757 mmHg 75%
    08:00 +11°C° 0 mm 1 mps 757 mmHg 69%
    09:00 +12°C° 0 mm 2 mps 757 mmHg 63%
    10:00 +13°C° 0 mm 2 mps 757 mmHg 57%
    11:00 +14°C° 0 mm 2 mps 757 mmHg 56%
    12:00 +13°C° 0 mm 3 mps 757 mmHg 56%
    13:00 +14°C° 0 mm 3 mps 757 mmHg 55%
    14:00 +13°C° 0 mm 3 mps 757 mmHg 57%
    15:00 +13°C° 0 mm 3 mps 757 mmHg 58%
    16:00 +12°C° 0 mm 3 mps 756 mmHg 60%
    17:00 +12°C° 0 mm 3 mps 757 mmHg 61%
    18:00 +11°C° 0 mm 3 mps 757 mmHg 62%
    19:00 +11°C° 0 mm 4 mps 757 mmHg 63%
    20:00 +10°C° 0 mm 4 mps 757 mmHg 64%
    21:00 +10°C° 0 mm 4 mps 757 mmHg 65%
    22:00 +10°C° 0 mm 4 mps 757 mmHg 66%
    23:00 +9°C° 0.1 mm 3 mps 757 mmHg 70%

    Day after tomorrow, 21 October, Sunday

    Time Temperature Precipitation Wind Pressure Humidity
    00:00 +9°C° 0.1 mm 3 mps 757 mmHg 73%
    01:00 +8°C° 0.1 mm 3 mps 757 mmHg 77%
    02:00 +8°C° 0.1 mm 3 mps 757 mmHg 81%
    03:00 +7°C° 0.1 mm 3 mps 756 mmHg 84%
    04:00 +7°C° 0.1 mm 3 mps 756 mmHg 88%
    05:00 +7°C° 0 mm 3 mps 756 mmHg 89%
    06:00 +7°C° 0 mm 3 mps 757 mmHg 89%
    07:00 +7°C° 0 mm 3 mps 757 mmHg 90%
    08:00 +8°C° 0 mm 3 mps 757 mmHg 85%
    09:00 +9°C° 0 mm 3 mps 757 mmHg 80%
    10:00 +10°C° 0 mm 3 mps 757 mmHg 75%
    11:00 +11°C° 0.1 mm 3 mps 757 mmHg 71%
    12:00 +11°C° 0.1 mm 3 mps 757 mmHg 66%
    13:00 +12°C° 0.1 mm 3 mps 757 mmHg 62%
    14:00 +13°C° 0 mm 2 mps 757 mmHg 63%
    15:00 +12°C° 0 mm 2 mps 757 mmHg 63%
    16:00 +12°C° 0 mm 2 mps 757 mmHg 64%
    17:00 +11°C° 0 mm 1 mps 757 mmHg 67%
    18:00 +10°C° 0 mm 1 mps 757 mmHg 70%
    19:00 +9°C° 0 mm 1 mps 758 mmHg 73%
    20:00 +9°C° 0 mm 1 mps 758 mmHg 74%
    21:00 +8°C° 0 mm 1 mps 758 mmHg 76%
    22:00 +8°C° 0 mm 1 mps 758 mmHg 77%
    23:00 +7°C° 0 mm 1 mps 758 mmHg 79%

    22 October, Monday

    Time Temperature Precipitation Wind Pressure Humidity
    00:00 +7°C° 0 mm 1 mps 758 mmHg 80%
    01:00 +7°C° 0 mm 1 mps 758 mmHg 81%
    02:00 +6°C° 0 mm 1 mps 758 mmHg 83%
    03:00 +6°C° 0 mm 1 mps 757 mmHg 84%
    04:00 +6°C° 0 mm 1 mps 757 mmHg 85%
    05:00 +6°C° 0 mm 1 mps 757 mmHg 86%
    06:00 +6°C° 0 mm 1 mps 757 mmHg 86%
    07:00 +6°C° 0 mm 1 mps 757 mmHg 87%
    08:00 +7°C° 0 mm 2 mps 757 mmHg 79%
    09:00 +8°C° 0 mm 2 mps 757 mmHg 72%
    10:00 +10°C° 0 mm 2 mps 757 mmHg 65%
    11:00 +11°C° 0 mm 3 mps 756 mmHg 61%
    12:00 +12°C° 0 mm 3 mps 756 mmHg 57%
    13:00 +13°C° 0 mm 3 mps 755 mmHg 53%
    14:00 +12°C° 0 mm 3 mps 755 mmHg 57%
    15:00 +11°C° 0 mm 3 mps 755 mmHg 60%
    16:00 +11°C° 0 mm 3 mps 754 mmHg 64%
    17:00 +10°C° 0.4 mm 3 mps 754 mmHg 70%
    18:00 +9°C° 0.4 mm 3 mps 754 mmHg 77%
    19:00 +7°C° 0.4 mm 4 mps 754 mmHg 83%
    20:00 +7°C° 0.8 mm 4 mps 754 mmHg 83%
    21:00 +7°C° 0.8 mm 4 mps 754 mmHg 83%
    22:00 +7°C° 0.8 mm 4 mps 754 mmHg 83%
    23:00 +7°C° 0.2 mm 4 mps 754 mmHg 82%

    23 October, Tuesday

    Time Temperature Precipitation Wind Pressure Humidity
    00:00 +7°C° 0.2 mm 4 mps 754 mmHg 80%
    01:00 +6°C° 0.2 mm 4 mps 754 mmHg 79%
    02:00 +6°C° 0 mm 4 mps 754 mmHg 80%
    03:00 +5°C° 0 mm 4 mps 753 mmHg 82%
    04:00 +5°C° 0 mm 4 mps 753 mmHg 83%
    05:00 +5°C° 0 mm 3 mps 753 mmHg 85%
    06:00 +4°C° 0 mm 3 mps 753 mmHg 86%
    07:00 +4°C° 0 mm 3 mps 753 mmHg 88%
    08:00 +5°C° 0 mm 4 mps 753 mmHg 82%
    09:00 +6°C° 0 mm 4 mps 753 mmHg 75%
    10:00 +8°C° 0 mm 4 mps 753 mmHg 69%
    11:00 +8°C° 0 mm 5 mps 753 mmHg 65%
    12:00 +9°C° 0 mm 5 mps 752 mmHg 61%
    13:00 +9°C° 0 mm 6 mps 752 mmHg 57%
    14:00 +9°C° 0 mm 5 mps 751 mmHg 60%
    15:00 +8°C° 0 mm 5 mps 751 mmHg 63%
    16:00 +8°C° 0 mm 5 mps 751 mmHg 66%
    17:00 +7°C° 0.1 mm 5 mps 751 mmHg 71%
    18:00 +7°C° 0.1 mm 5 mps 751 mmHg 75%
    19:00 +6°C° 0.1 mm 5 mps 750 mmHg 80%
    20:00 +6°C° 0.1 mm 5 mps 750 mmHg 82%
    21:00 +6°C° 0.1 mm 5 mps 750 mmHg 84%
    22:00 +6°C° 0.1 mm 5 mps 750 mmHg 86%
    23:00 +6°C° 0 mm 5 mps 749 mmHg 87%

    24 October, Wednesday

    Time Temperature Precipitation Wind Pressure Humidity
    00:00 +6°C° 0 mm 5 mps 748 mmHg 89%
    01:00 +6°C° 0 mm 5 mps 748 mmHg 90%
    02:00 +5°C° 0.4 mm 6 mps 747 mmHg 88%
    03:00 +6°C° 0.4 mm 7 mps 745 mmHg 87%
    04:00 +6°C° 0.4 mm 8 mps 744 mmHg 86%
    05:00 +7°C° 1 mm 8 mps 743 mmHg 86%
    06:00 +7°C° 1 mm 9 mps 742 mmHg 87%
    07:00 +8°C° 1 mm 9 mps 741 mmHg 88%
    08:00 +10°C° 0.5 mm 9 mps 740 mmHg 87%
    09:00 +10°C° 0.5 mm 9 mps 740 mmHg 86%
    10:00 +11°C° 0.5 mm 9 mps 739 mmHg 85%
    11:00 +11°C° 0.3 mm 9 mps 739 mmHg 82%
    12:00 +12°C° 0.3 mm 9 mps 739 mmHg 79%
    13:00 +12°C° 0.3 mm 9 mps 739 mmHg 76%
    14:00 +12°C° 0.2 mm 8 mps 739 mmHg 73%
    15:00 +12°C° 0.2 mm 8 mps 739 mmHg 70%
    16:00 +12°C° 0.2 mm 8 mps 739 mmHg 66%
    17:00 +11°C° 0.1 mm 7 mps 740 mmHg 65%
    18:00 +10°C° 0.1 mm 7 mps 741 mmHg 63%
    19:00 +9°C° 0.1 mm 6 mps 741 mmHg 62%
    20:00 +9°C° 0 mm 6 mps 742 mmHg 62%
    21:00 +8°C° 0 mm 6 mps 742 mmHg 61%
    22:00 +7°C° 0 mm 6 mps 742 mmHg 61%
    23:00 +6°C° 0 mm 7 mps 743 mmHg 61%
    Show more